FW4608 Weather Reports


time (UTC)temp
C
wind
direction
speed
KPH
gust
KPH
rain 1hr
cm
rain 24hr
cm
rain mn
cm
humidity
%
barometer
mb
20260509044549 20 255 0.0 1.6 0.03 0.08 0.03 91 1015.3
20260509044045 20 256 0.0 0.0 0.05 0.08 0.03 91 1015.3
20260509043542 20 256 0.0 0.0 0.08 0.08 0.03 91 1015.5
20260509043042 20 319 0.0 3.2 0.08 0.08 0.03 90 1015.6
20260509042541 20 313 0.0 3.2 0.08 0.08 0.03 90 1015.5
20260509042039 20 317 0.0 0.0 0.08 0.08 0.03 91 1015.6
20260509041537 20 317 0.0 4.8 0.05 0.05 0.00 91 1015.6
20260509041038 20 317 0.0 4.8 0.05 0.05 0.00 91 1015.7
20260509040532 21 57 0.0 4.8 0.05 0.05 0.00 90 1015.7
20260509040036 21 353 0.0 4.8 0.05 0.05 0.00 90 1015.6
20260509035528 21 314 0.0 1.6 0.05 0.05 0.05 90 1015.8
20260509035031 21 221 0.0 1.6 0.05 0.05 0.05 90 1015.7
20260509034531 21 221 0.0 1.6 0.05 0.05 0.05 89 1015.7
20260509034026 21 338 0.0 3.2 0.03 0.03 0.03 89 1015.5
20260509033522 22 138 0.0 3.2 0.00 0.00 0.00 89 1015.7
20260509033025 22 175 0.0 4.8 0.00 0.00 0.00 89 1015.7
20260509032523 22 124 0.0 4.8 0.00 0.00 0.00 89 1015.6
20260509032023 22 144 0.0 6.4 0.00 0.00 0.00 88 1015.6
20260509031522 22 120 0.0 6.4 0.00 0.00 0.00 89 1015.4
20260509031027 22 203 0.0 6.4 0.00 0.00 0.00 89 1015.3
20260509030619 22 321 0.0 4.8 0.00 0.00 0.00 89 1015.1
20260509030020 22 321 0.0 4.8 0.00 0.00 0.00 89 1015.2
20260509025517 22 143 0.0 1.6 0.00 0.00 0.00 89 1015.1
20260509025016 22 135 0.0 1.6 0.00 0.00 0.00 89 1015.1
20260509024516 22 150 0.0 3.2 0.00 0.00 0.00 89 1015.2
20260509024018 22 341 0.0 3.2 0.00 0.00 0.00 89 1015.2
20260509023514 22 241 0.0 1.6 0.00 0.00 0.00 89 1015.2
20260509023019 22 294 0.0 1.6 0.00 0.00 0.00 89 1015.1
20260509022517 22 294 0.0 1.6 0.00 0.00 0.00 89 1015.1
20260509022012 22 321 0.0 1.6 0.00 0.00 0.00 89 1015.0
20260509021512 22 325 0.0 0.0 0.00 0.00 0.00 89 1015.0
20260509021013 22 325 0.0 0.0 0.00 0.00 0.00 89 1014.8
20260509020512 22 326 0.0 0.0 0.00 0.00 0.00 89 1014.8
20260509020008 22 326 0.0 0.0 0.00 0.00 0.00 89 1014.5
20260509015509 22 308 0.0 0.0 0.00 0.00 0.00 89 1014.4
20260509015011 22 296 0.0 0.0 0.00 0.00 0.00 89 1014.3
20260509014508 22 296 0.0 0.0 0.00 0.00 0.00 88 1014.3
20260509014012 22 296 0.0 0.0 0.00 0.00 0.00 88 1014.3
20260509013506 22 296 0.0 1.6 0.00 0.00 0.00 88 1014.3
20260509013010 22 296 0.0 1.6 0.00 0.00 0.00 88 1014.3
20260509012504 22 296 0.0 0.0 0.00 0.00 0.00 88 1014.2
20260509012006 22 296 0.0 1.6 0.00 0.00 0.00 88 1014.2
20260509011504 22 296 0.0 1.6 0.00 0.00 0.00 88 1014.1
20260509011006 22 296 0.0 1.6 0.00 0.00 0.00 88 1014.1
20260509010505 22 271 0.0 1.6 0.00 0.00 0.00 88 1014.0
20260509010004 22 271 0.0 0.0 0.00 0.00 0.00 88 1014.0
20260509005512 22 271 0.0 1.6 0.00 0.00 0.00 87 1014.0
20260509005000 22 270 0.0 1.6 0.00 0.00 0.00 87 1013.7
20260509004501 22 265 0.0 1.6 0.00 0.00 0.00 87 1013.7
20260509004103 22 321 0.0 1.6 0.00 0.00 0.00 87 1013.8
20260509003509 22 291 0.0 1.6 0.00 0.00 0.00 87 1013.8
20260509003108 22 291 0.0 1.6 0.00 0.00 0.00 87 1014.0
20260509002559 22 347 0.0 6.4 0.00 0.00 0.00 87 1014.0
20260509002505 22 347 0.0 6.4 0.00 0.00 0.00 87 1014.0
20260509002100 22 43 0.0 6.4 0.00 0.00 0.00 87 1014.0
20260509002002 22 298 0.0 6.4 0.00 0.00 0.00 87 1013.9
20260509001556 22 220 0.0 1.6 0.00 0.00 0.00 87 1013.8
20260509001059 22 326 0.0 1.6 0.00 0.00 0.00 86 1013.7
20260509000557 22 319 0.0 1.6 0.00 0.00 0.00 86 1013.7
20260508235555 22 12 0.0 6.4 0.00 0.00 0.00 86 1013.6
20260508235053 22 302 0.0 6.4 0.00 0.00 0.00 86 1013.5
20260508234600 22 279 0.0 3.2 0.00 0.00 0.00 85 1013.3
20260508234053 23 294 0.0 3.2 0.00 0.00 0.00 85 1013.4
20260508233552 23 302 0.0 3.2 0.00 0.00 0.00 84 1013.5
20260508233054 23 93 0.0 1.6 0.00 0.00 0.00 85 1013.4
20260508232549 23 124 0.0 3.2 0.00 0.00 0.00 84 1013.6
20260508232048 23 323 0.0 3.2 0.00 0.00 0.00 84 1013.5
20260508231631 23 278 0.0 4.8 0.00 0.00 0.00 84 1013.5
20260508231048 23 321 0.0 8.0 0.00 0.00 0.00 84 1013.3
20260508230546 23 200 0.0 8.0 0.00 0.00 0.00 84 1013.3
20260508230058 23 131 0.0 8.0 0.00 0.00 0.00 84 1013.1
20260508225546 23 359 0.0 3.2 0.00 0.00 0.00 84 1012.8
20260508225045 23 319 0.0 3.2 0.00 0.00 0.00 85 1012.9
20260508224549 23 11 0.0 6.4 0.00 0.00 0.00 85 1012.9
20260508224044 23 335 0.0 6.4 0.00 0.00 0.00 85 1012.7
20260508223543 23 302 0.0 3.2 0.00 0.00 0.00 85 1012.7
20260508223047 23 323 0.0 3.2 0.00 0.00 0.00 85 1012.9
20260508222541 23 309 0.0 3.2 0.00 0.00 0.00 85 1013.0
20260508222041 23 323 0.0 6.4 0.00 0.00 0.00 84 1013.3
20260508221539 23 119 0.0 6.4 0.00 0.00 0.00 83 1012.8
20260508221038 24 242 0.0 6.4 0.00 0.00 0.00 82 1012.7
20260508220536 24 319 0.0 6.4 0.00 0.00 0.00 81 1012.8
20260508220039 25 83 0.0 3.2 0.00 0.00 0.00 80 1012.8
20260508215535 25 10 0.0 3.2 0.00 0.00 0.00 80 1013.0
20260508215042 25 147 0.0 6.4 0.00 0.00 0.00 79 1013.2
20260508214540 25 6 0.0 6.4 0.00 0.00 0.00 78 1013.1
20260508214043 25 304 0.0 6.4 0.00 0.00 0.00 77 1013.1
20260508213534 26 128 0.0 6.4 0.00 0.00 0.00 77 1013.1
20260508213034 26 192 0.0 6.4 0.00 0.00 0.00 77 1012.9
20260508212533 26 220 1.6 11.3 0.00 0.00 0.00 77 1012.8
20260508212040 26 317 1.6 11.3 0.00 0.00 0.00 77 1012.9
20260508211539 26 319 0.0 9.7 0.00 0.00 0.00 76 1013.0
20260508211032 26 321 0.0 9.7 0.00 0.00 0.00 76 1012.9
20260508210528 26 271 0.0 6.4 0.00 0.00 0.00 76 1012.9
20260508210032 26 300 1.6 6.4 0.00 0.00 0.00 75 1012.8
20260508205528 26 144 0.0 8.0 0.00 0.00 0.00 76 1012.8
20260508205029 26 329 1.6 8.0 0.00 0.00 0.00 75 1012.8
20260508204527 26 291 0.0 3.2 0.00 0.00 0.00 74 1012.6
20260508204024 27 134 0.0 8.0 0.00 0.00 0.00 74 1012.8
20260508203026 27 78 0.0 4.8 0.00 0.00 0.00 71 1012.8
20260508202520 27 133 0.0 3.2 0.00 0.00 0.00 73 1012.7
20260508202020 27 325 0.0 3.2 0.00 0.00 0.00 72 1012.7
20260508201520 27 239 0.0 3.2 0.00 0.00 0.00 72 1012.6
20260508201030 28 248 0.0 6.4 0.00 0.00 0.00 71 1012.8
20260508200519 28 189 0.0 9.7 0.00 0.00 0.00 70 1012.8
20260508200019 29 146 1.6 9.7 0.00 0.00 0.00 68 1012.8
20260508195516 29 300 0.0 6.4 0.00 0.00 0.00 69 1012.8
20260508195024 29 245 0.0 8.0 0.00 0.00 0.00 70 1013.1
20260508194515 29 108 1.6 8.0 0.00 0.00 0.00 71 1013.2
20260508194014 29 240 1.6 8.0 0.00 0.00 0.00 71 1013.4
20260508193513 28 221 0.0 8.0 0.00 0.00 0.00 72 1013.5
20260508193015 28 323 1.6 8.0 0.00 0.00 0.00 70 1013.5
20260508192513 28 202 1.6 6.4 0.00 0.00 0.00 70 1013.7
20260508192013 28 150 0.0 6.4 0.00 0.00 0.00 71 1013.7
20260508191613 28 292 0.0 9.7 0.00 0.00 0.00 71 1013.7
20260508191108 28 237 0.0 9.7 0.00 0.00 0.00 71 1013.7
20260508190507 28 313 0.0 11.3 0.00 0.00 0.00 72 1013.9
20260508190006 28 113 1.6 11.3 0.00 0.00 0.00 71 1013.9
20260508185505 28 136 0.0 1.6 0.00 0.00 0.00 73 1013.8
20260508185006 28 338 0.0 3.2 0.00 0.00 0.00 72 1014.0
20260508184503 28 319 0.0 4.8 0.00 0.00 0.00 71 1014.0
20260508184001 28 89 0.0 4.8 0.00 0.00 0.00 70 1014.1
20260508183502 29 94 0.0 4.8 0.00 0.00 0.00 69 1014.1
20260508183003 30 286 1.6 4.8 0.00 0.00 0.00 68 1014.1
20260508182600 30 222 0.0 4.8 0.00 0.00 0.00 68 1014.0
20260508182508 30 144 0.0 4.8 0.00 0.00 0.00 68 1014.0
20260508182100 30 283 0.0 4.8 0.00 0.00 0.00 70 1014.0
20260508182001 30 87 0.0 6.4 0.00 0.00 0.00 68 1014.1
20260508181558 29 312 0.0 6.4 0.00 0.00 0.00 70 1014.1
20260508181100 30 321 0.0 8.0 0.00 0.00 0.00 69 1014.1
20260508180558 29 259 0.0 8.0 0.00 0.00 0.00 70 1014.2
20260508180110 29 143 0.0 4.8 0.00 0.00 0.00 69 1014.3
20260508175612 29 232 0.0 6.4 0.00 0.00 0.00 70 1014.4
20260508175058 29 145 0.0 6.4 0.00 0.00 0.00 68 1014.3
20260508174553 29 98 0.0 4.8 0.00 0.00 0.00 70 1014.4
20260508174043 28 227 0.0 4.8 0.00 0.00 0.00 71 1014.4
20260508173544 28 180 0.0 9.7 0.00 0.00 0.00 69 1014.5
20260508173040 28 200 1.6 9.7 0.00 0.00 0.00 71 1014.6
20260508172537 28 300 0.0 6.4 0.00 0.00 0.00 72 1014.5
20260508172036 27 122 0.0 6.4 0.00 0.00 0.00 73 1014.5
20260508171537 27 157 0.0 8.0 0.00 0.00 0.00 75 1014.6
20260508171034 26 141 1.6 8.0 0.00 0.00 0.00 73 1014.8
20260508170533 26 236 0.0 4.8 0.00 0.00 0.00 77 1014.9
20260508170035 26 160 0.0 1.6 0.00 0.00 0.00 76 1014.9
20260508165532 26 91 0.0 1.6 0.00 0.00 0.00 76 1015.0
20260508165033 26 194 0.0 3.2 0.00 0.00 0.00 76 1015.3
20260508164532 26 88 0.0 3.2 0.00 0.00 0.00 77 1015.4
20260508164030 26 236 0.0 3.2 0.00 0.00 0.00 76 1015.3
20260508163531 27 294 0.0 3.2 0.00 0.00 0.00 77 1015.3
20260508163037 27 349 0.0 3.2 0.00 0.00 0.00 76 1015.4
20260508162526 26 287 0.0 3.2 0.00 0.00 0.00 78 1015.3
20260508162024 26 223 0.0 3.2 0.00 0.00 0.00 79 1015.3
20260508161533 26 330 0.0 4.8 0.00 0.00 0.00 79 1015.3
20260508161022 26 282 0.0 4.8 0.00 0.00 0.00 80 1015.4
20260508160523 25 125 0.0 4.8 0.00 0.00 0.00 79 1015.5
20260508160022 25 304 0.0 4.8 0.00 0.00 0.00 79 1015.7
20260508155524 25 71 0.0 4.8 0.00 0.00 0.00 78 1015.7
20260508155024 25 34 0.0 3.2 0.00 0.00 0.00 79 1015.7
20260508154518 26 234 0.0 3.2 0.00 0.00 0.00 78 1015.9
20260508154020 26 170 0.0 1.6 0.00 0.00 0.00 78 1015.9
20260508153517 26 316 0.0 6.4 0.00 0.00 0.00 78 1015.8
20260508153017 26 323 0.0 6.4 0.00 0.00 0.00 77 1015.8
20260508152516 26 300 0.0 8.0 0.00 0.00 0.00 77 1015.8
20260508152023 26 200 1.6 8.0 0.00 0.00 0.00 76 1015.7
20260508151515 26 328 0.0 3.2 0.00 0.00 0.00 76 1015.8
20260508151018 26 276 0.0 1.6 0.00 0.00 0.00 76 1015.7
20260508150515 26 278 0.0 8.0 0.00 0.00 0.00 76 1015.7
20260508150018 26 316 0.0 8.0 0.00 0.00 0.00 76 1015.7
20260508145510 26 75 0.0 6.4 0.00 0.00 0.00 78 1015.6
20260508145007 25 321 0.0 6.4 0.00 0.00 0.00 79 1015.6
20260508144506 25 96 0.0 6.4 0.00 0.00 0.00 81 1015.6
20260508144007 25 316 0.0 3.2 0.00 0.00 0.00 82 1015.5
20260508143505 24 178 0.0 4.8 0.00 0.00 0.00 84 1015.5
20260508143005 24 319 0.0 4.8 0.00 0.00 0.00 84 1015.5
20260508142502 23 269 0.0 3.2 0.00 0.00 0.00 84 1015.6
20260508142016 23 332 0.0 3.2 0.00 0.00 0.00 84 1015.6
20260508141603 23 139 0.0 1.6 0.00 0.00 0.00 84 1015.6
20260508141059 23 267 0.0 3.2 0.00 0.00 0.00 85 1015.5
20260508140601 23 328 0.0 3.2 0.00 0.00 0.00 86 1015.5
20260508140502 23 309 0.0 3.2 0.00 0.00 0.00 86 1015.4
20260508140106 23 288 0.0 6.4 0.00 0.00 0.00 86 1015.3
20260508135657 23 119 0.0 6.4 0.00 0.00 0.00 87 1015.4
20260508135053 23 334 0.0 1.6 0.00 0.00 0.00 87 1015.3
20260508134549 23 349 0.0 1.6 0.00 0.00 0.00 87 1015.3
20260508134047 23 330 0.0 3.2 0.00 0.00 0.00 88 1015.3
20260508133549 23 318 0.0 3.2 0.00 0.00 0.00 88 1015.2
20260508133048 24 335 0.0 3.2 0.00 0.00 0.00 89 1015.2
20260508132546 24 344 0.0 0.0 0.00 0.00 0.00 90 1015.1
20260508132043 24 339 0.0 0.0 0.00 0.00 0.00 90 1015.0
20260508131547 24 338 0.0 0.0 0.00 0.00 0.00 90 1014.9
20260508131042 24 309 0.0 0.0 0.00 0.00 0.00 91 1014.9
20260508130541 24 311 0.0 1.6 0.00 0.00 0.00 91 1014.9
20260508130038 24 311 0.0 1.6 0.00 0.00 0.00 92 1014.8
20260508125554 24 286 0.0 1.6 0.00 0.00 0.00 92 1014.6
20260508125036 24 304 0.0 1.6 0.00 0.00 0.00 93 1014.7
20260508124644 24 234 0.0 1.6 0.00 0.00 0.00 93 1014.8
20260508124039 23 234 0.0 1.6 0.00 0.00 0.00 93 1014.7
20260508123534 23 234 0.0 0.0 0.00 0.00 0.00 93 1014.8
20260508123033 23 234 0.0 0.0 0.00 0.00 0.00 93 1014.8
20260508122531 23 234 0.0 0.0 0.00 0.00 0.00 93 1014.8
20260508122033 23 234 0.0 0.0 0.00 0.00 0.00 93 1014.7
20260508121531 23 234 0.0 1.6 0.00 0.00 0.00 93 1014.7
20260508121031 23 234 0.0 1.6 0.00 0.00 0.00 93 1014.7
20260508120526 23 245 0.0 0.0 0.00 0.00 0.00 93 1014.6
20260508120030 23 245 0.0 0.0 0.00 0.00 0.00 93 1014.5
20260508115519 23 245 0.0 0.0 0.00 0.00 0.00 93 1014.3
20260508115017 23 245 0.0 0.0 0.00 0.00 0.00 93 1014.2
20260508114517 23 245 0.0 0.0 0.00 0.00 0.00 93 1014.1
20260508114014 23 245 0.0 0.0 0.00 0.00 0.00 93 1014.0
20260508113513 23 245 0.0 0.0 0.00 0.00 0.00 92 1013.8
20260508113015 23 245 0.0 1.6 0.00 0.00 0.00 92 1014.0
20260508112516 23 245 0.0 1.6 0.00 0.00 0.00 92 1013.8
20260508112013 22 245 0.0 0.0 0.00 0.00 0.00 92 1013.9
20260508111511 22 245 0.0 0.0 0.00 0.00 0.00 92 1013.7
20260508111014 22 246 0.0 0.0 0.00 0.00 0.00 92 1013.6
20260508110508 22 246 0.0 0.0 0.00 0.00 0.00 92 1013.5
20260508110005 22 245 0.0 0.0 0.00 0.00 0.00 92 1013.5
20260508105505 22 246 0.0 0.0 0.00 0.00 0.00 92 1013.3
20260508105007 22 245 0.0 0.0 0.00 0.00 0.00 92 1013.0
20260508104503 22 245 0.0 0.0 0.00 0.00 0.00 92 1013.1
20260508104005 22 245 0.0 0.0 0.00 0.00 0.00 92 1013.3
20260508103502 22 246 0.0 0.0 0.00 0.00 0.00 93 1013.0
20260508103000 22 246 0.0 0.0 0.00 0.00 0.00 92 1012.9
20260508102503 22 246 0.0 0.0 0.00 0.00 0.00 92 1013.0
20260508102001 22 246 0.0 0.0 0.00 0.00 0.00 92 1012.9
20260508101600 22 245 0.0 0.0 0.00 0.00 0.00 92 1012.8
20260508101058 22 246 0.0 0.0 0.00 0.00 0.00 92 1012.8
20260508100600 22 246 0.0 0.0 0.00 0.00 0.00 92 1012.7
20260508100101 22 246 0.0 0.0 0.00 0.00 0.00 92 1012.5
20260508095555 22 246 0.0 0.0 0.00 0.00 0.00 92 1012.5
20260508095049 22 245 0.0 0.0 0.00 0.00 0.00 92 1012.5
20260508094548 22 246 0.0 0.0 0.00 0.00 0.00 92 1012.5
20260508094048 22 246 0.0 0.0 0.00 0.00 0.00 92 1012.4
20260508093555 22 246 0.0 0.0 0.00 0.00 0.00 92 1012.5
20260508093155 22 246 0.0 0.0 0.00 0.00 0.00 91 1012.5
20260508092535 22 246 0.0 0.0 0.00 0.00 0.00 91 1012.4
20260508092035 22 246 0.0 0.0 0.00 0.00 0.00 91 1012.4
20260508091543 22 245 0.0 0.0 0.00 0.00 0.00 91 1012.3
20260508091033 22 246 0.0 0.0 0.00 0.00 0.00 91 1012.4
20260508090533 22 245 0.0 0.0 0.00 0.00 0.00 91 1012.3
20260508090031 22 245 0.0 0.0 0.00 0.00 0.00 91 1012.3
20260508090012 22 246 0.0 0.0 0.00 0.00 0.00 91 1012.4
20260508085513 22 246 0.0 0.0 0.00 0.00 0.00 91 1012.4
20260508085012 23 245 0.0 1.6 0.00 0.00 0.00 91 1012.3
20260508084512 23 246 0.0 1.6 0.00 0.00 0.00 91 1012.2
20260508084010 23 240 0.0 1.6 0.00 0.00 0.00 91 1012.4
20260508083513 23 240 0.0 1.6 0.00 0.00 0.00 91 1012.3
20260508083011 23 242 0.0 3.2 0.00 0.00 0.00 90 1012.4
20260508082507 23 242 0.0 3.2 0.00 0.00 0.00 90 1012.3
20260508082006 23 239 0.0 0.0 0.00 0.00 0.00 90 1012.4
20260508081505 23 239 0.0 1.6 0.00 0.00 0.00 90 1012.3
20260508081008 23 239 0.0 1.6 0.00 0.00 0.00 90 1012.4
20260508080504 23 239 0.0 1.6 0.00 0.00 0.00 90 1012.4
20260508080007 23 239 0.0 1.6 0.00 0.00 0.00 90 1012.4
20260508075600 23 243 0.0 1.6 0.00 0.00 0.00 90 1012.4
20260508075101 23 219 0.0 1.6 0.00 0.00 0.00 90 1012.4
20260508074604 23 219 0.0 1.6 0.00 0.00 0.00 90 1012.4
20260508074059 23 231 0.0 1.6 0.00 0.00 0.00 90 1012.5
20260508073559 23 231 0.0 4.8 0.00 0.00 0.00 90 1012.5
20260508073056 23 229 0.0 4.8 0.00 0.00 0.00 89 1012.6
20260508072553 23 243 0.0 4.8 0.00 0.00 0.00 89 1012.5
20260508072053 23 237 0.0 6.4 0.00 0.00 0.00 89 1012.7
20260508071555 23 233 0.0 6.4 0.00 0.00 0.00 89 1012.7
20260508071047 23 273 1.6 6.4 0.00 0.00 0.00 89 1012.9
20260508070544 23 234 1.6 6.4 0.00 0.00 0.00 89 1012.8
20260508070044 23 246 0.0 3.2 0.00 0.00 0.00 89 1012.8
20260508065545 23 244 0.0 4.8 0.00 0.00 0.00 89 1012.8
20260508065041 23 245 0.0 4.8 0.00 0.00 0.00 89 1012.8
20260508064540 23 238 0.0 6.4 0.00 0.00 0.00 89 1012.9
20260508064038 24 238 0.0 6.4 0.00 0.00 0.00 89 1012.9
20260508063538 24 227 0.0 6.4 0.00 0.00 0.00 89 1012.9
20260508063040 24 214 0.0 4.8 0.00 0.00 0.00 89 1012.9
20260508062535 24 259 0.0 4.8 0.00 0.00 0.00 88 1013.1
20260508062149 24 288 0.0 4.8 0.00 0.00 0.00 88 1013.0
20260508061633 24 275 0.0 6.4 0.00 0.00 0.00 88 1013.1
20260508061033 24 257 1.6 6.4 0.00 0.00 0.00 88 1013.1
20260508060539 24 313 0.0 12.9 0.00 0.00 0.00 88 1013.0
20260508060028 24 229 1.6 12.9 0.00 0.00 0.00 88 1013.1
20260508055526 24 191 0.0 4.8 0.00 0.00 0.00 88 1013.1
20260508055028 24 236 0.0 4.8 0.00 0.00 0.00 87 1013.3
20260508054526 24 246 0.0 4.8 0.00 0.00 0.00 87 1013.3
20260508054024 24 243 0.0 4.8 0.00 0.00 0.00 87 1013.3
20260508053523 24 328 0.0 6.4 0.00 0.00 0.00 87 1013.3
20260508053021 25 264 0.0 4.8 0.00 0.00 0.00 87 1013.2
20260508052637 25 262 0.0 6.4 0.00 0.00 0.00 87 1013.2
20260508052019 25 229 1.6 8.0 0.00 0.00 0.00 87 1013.2
20260508051528 25 240 1.6 9.7 0.00 0.00 0.00 87 1013.2
20260508051018 25 243 3.2 9.7 0.00 0.00 0.00 87 1013.2
20260508050516 25 238 0.0 6.4 0.00 0.00 0.00 87 1013.2
20260508050013 25 233 0.0 14.5 0.00 0.00 0.00 87 1013.3
20260508045616 25 300 3.2 14.5 0.00 0.00 0.00 86 1013.4
20260508045052 25 249 3.2 14.5 0.00 0.00 0.00 86 1013.3